STARLINK-35420 (66260 NORAD) Tracking and Keplerian Element Data

This shows tracking and keplerian element data for the satellite.

Feedback or suggestion? Click here.




ElementValue
Catalog66260
NameSTARLINK-35420
Epoch Orbit904
Epoch Day353.99664686
Epoch Year2025
RAAN294.8729
Inclination53.1616
Eccentricity0.0002305
Argument of Perigee5.0854
Mean Anonmoly355.0174
Mean Motion15.3961086
Decay Rate0.00017119
L11 66260U 25245AC 25353.99664686 .00017119 00000+0 43711-3 0 9997
L22 66260 53.1616 294.8729 0002305 5.0854 355.0174 15.39610860 9044



Live tracking and technical data element details for STARLINK-35420 (NORAD 66260). STARLINK-35420 can be tracked NOW for your location showing map with azimuth and elevation plus other details from your city location.







IsCatalogInMostPopularTable: catalog: 66260, numindb: 3
Update: records affected: 1



GetName: 66260 STARLINK-35420

Hit Count: updated at: Mon, 09 Feb 2026 08:55:11 GMT